sat.trackr.live / text

‹ back to catalog

TRANSPORTER-14 OBJECT AE

NORAD 64556 · 2025-135AE

PAYLOAD ACTIVE UNKNOWN

§ Identity

Operator
Country
TBD
Launch date
2025-06-23
Launch site
AFWTR
Launch vehicle
Mass (kg)
RCS (m²)

External: N2YO · Heavens-Above · Gunter

§ Orbital elements

Epoch: 2026-09-21T20:56:10.250304Z

Period
94.29 min
Inclination
97.4824°
Eccentricity
0.0002880
Mean motion
15.27185596 rev/d
Perigee alt
482.3 km
Apogee alt
486.2 km
Semi-major
6,862.4 km
B*
2.3865e-4
RAAN
21.5937°
Arg perigee
85.9695°
Mean anomaly
274.1873°
Rev number
6,969

§ Raw data

TRANSPORTER-14 OBJECT AE1 64556U 25135AE  26264.87234086  .00006285  00000+0  23865-3 0  99972 64556  97.4824  21.5937 0002880  85.9695 274.1873 15.27185596 69690

JSON: /api/v1/satellites/64556 · /tle

For live sub-satellite position, see the globe view (requires WebGL).

§ Visibility from observer

Set your observer location to see the next 7 days of passes ≥ 10°. The values pass through the URL so the page stays shareable.

No JS? Fill the form by hand. The geolocation button needs JavaScript.